Tracking 19903 objects as of 16-Oct-2019
HD Live streaming from Space Station
objects crossing your sky now

ARIANE 2 DEB

Track ARIANE 2 DEB now!


NORAD ID: 33568
Int'l Code: 1989-006BL
Perigee: 448.3 km
Apogee: 35,398.6 km
Inclination: 7.9 °
Period: 628.1 minutes
Semi major axis: 24294 km
RCS: 0.1575 m2 (medium)
Launch date: January 27, 1989
Source: France (FR)
Launch site: FRENCH GUIANA (FRGUI)

Note: This is SATELLITE DEBRIS
aabbcc
Your satellite tracking list
Your tracking list is empty




NASA's NSSDC Master Catalog

Two Line Element Set (TLE):
1 33568U 89006BL  19284.92943487 -.00000178  00000-0  16542-3 0  9996
2 33568   7.9377 227.8037 7193065 171.0678 217.2222  2.29267592110992
Source of the keplerian elements: AFSPC